CSN25B ZBTJ-ZGGG

Flight info

Callsign CSN25B
Flight time 3h 11m
Altitude 38100
Route OMDEK2W OMDEK W37 GUSIV/K0800S1190 W37 PEXID/K0796S1160 W37 OMBEB/K0798S1190 R473 BEMAG/K0795S1160 V5 ATAGA
Aircraft A20N/M-SDE2E3FGHIRWXY/LB1

Departure

Time 2026-04-28 07:12
Airport Tianjin Binhai International Airport (ZBTJ)

Arrival

Time 2026-04-28 10:24
Airport Guangzhou Baiyun International Airport (ZGGG)
Time Latitude Longitude Altitude Speed Heading
2026-04-28 06:35 39.11307 117.34868 14 ft 0 kts 333°
2026-04-28 07:05 39.11308 117.34867 14 ft 1 kts 333°
2026-04-28 07:05 39.11329 117.34862 14 ft 1 kts 25°
2026-04-28 07:05 39.11334 117.34880 14 ft 5 kts 61°
2026-04-28 07:06 39.11366 117.34945 14 ft 12 kts 57°
2026-04-28 07:06 39.11439 117.34952 14 ft 12 kts 317°
2026-04-28 07:06 39.11502 117.34920 16 ft 11 kts 329°
2026-04-28 07:06 39.11589 117.34865 14 ft 17 kts 334°
2026-04-28 07:07 39.11711 117.34789 14 ft 22 kts 334°
2026-04-28 07:07 39.11849 117.34708 14 ft 22 kts 335°
2026-04-28 07:07 39.12000 117.34615 15 ft 26 kts 334°
2026-04-28 07:07 39.12178 117.34503 14 ft 30 kts 334°
2026-04-28 07:08 39.12359 117.34393 15 ft 16 kts 335°
2026-04-28 07:08 39.12476 117.34323 15 ft 21 kts 334°
2026-04-28 07:08 39.12624 117.34233 14 ft 26 kts 334°
2026-04-28 07:08 39.12743 117.34159 14 ft 17 kts 334°
2026-04-28 07:09 39.12864 117.34085 15 ft 22 kts 334°
2026-04-28 07:09 39.13014 117.33991 13 ft 24 kts 334°
2026-04-28 07:09 39.13156 117.33905 14 ft 23 kts 336°
2026-04-28 07:09 39.13313 117.33812 14 ft 27 kts 334°
2026-04-28 07:10 39.13489 117.33700 14 ft 21 kts 333°
2026-04-28 07:10 39.13604 117.33628 14 ft 21 kts 334°
2026-04-28 07:10 39.13634 117.33625 14 ft 0 kts 75°
2026-04-28 07:11 39.13635 117.33631 14 ft 4 kts 75°
2026-04-28 07:11 39.13667 117.33694 14 ft 12 kts 45°
2026-04-28 07:11 39.13696 117.33812 14 ft 16 kts 95°
2026-04-28 07:11 39.13635 117.33881 15 ft 11 kts 141°
2026-04-28 07:12 39.13556 117.33931 14 ft 15 kts 154°
2026-04-28 07:12 39.13317 117.34075 12 ft 86 kts 153°
2026-04-28 07:12 39.12484 117.34543 83 ft 165 kts 160°
2026-04-28 07:12 39.11294 117.35100 647 ft 201 kts 161°
2026-04-28 07:13 39.09773 117.35620 1245 ft 251 kts 165°
2026-04-28 07:13 39.08058 117.36508 1823 ft 265 kts 151°
2026-04-28 07:13 39.06544 117.37611 2423 ft 241 kts 148°
2026-04-28 07:13 39.05100 117.38707 3074 ft 244 kts 149°
2026-04-28 07:14 39.03606 117.39792 3706 ft 248 kts 150°
2026-04-28 07:14 39.02071 117.40847 4335 ft 249 kts 152°
2026-04-28 07:14 39.00513 117.41876 4826 ft 256 kts 153°
2026-04-28 07:14 38.98919 117.42903 5117 ft 257 kts 152°
2026-04-28 07:15 38.97538 117.44339 5764 ft 259 kts 123°
2026-04-28 07:15 38.96914 117.46474 7115 ft 254 kts 92°
2026-04-28 07:15 38.97044 117.48706 8486 ft 254 kts 78°
2026-04-28 07:15 38.97334 117.50970 9807 ft 259 kts 77°
2026-04-28 07:16 38.97645 117.53284 11035 ft 265 kts 76°
2026-04-28 07:16 38.97956 117.55650 12237 ft 271 kts 77°
2026-04-28 07:16 38.98270 117.58111 13129 ft 292 kts 77°
2026-04-28 07:16 38.98606 117.60805 13765 ft 318 kts 79°
2026-04-28 07:17 38.98577 117.63792 14283 ft 349 kts 98°
2026-04-28 07:17 38.97720 117.66854 14675 ft 380 kts 118°
2026-04-28 07:17 38.96031 117.69586 14977 ft 407 kts 137°
2026-04-28 07:17 38.93663 117.71634 15638 ft 417 kts 156°
2026-04-28 07:18 38.90857 117.72835 16183 ft 429 kts 171°
2026-04-28 07:18 38.87871 117.73140 16480 ft 441 kts 187°
2026-04-28 07:18 38.84873 117.72470 17236 ft 438 kts 202°
2026-04-28 07:18 38.82071 117.70945 17923 ft 430 kts 215°
2026-04-28 07:19 38.79681 117.68746 18158 ft 421 kts 228°
2026-04-28 07:19 38.77766 117.65925 18199 ft 411 kts 241°
2026-04-28 07:19 38.76477 117.62688 18235 ft 405 kts 254°
2026-04-28 07:19 38.75904 117.59187 18839 ft 402 kts 268°
2026-04-28 07:20 38.76022 117.55772 19645 ft 364 kts 281°
2026-04-28 07:20 38.76740 117.52771 19637 ft 349 kts 294°
2026-04-28 07:20 38.78130 117.50244 19607 ft 351 kts 312°
2026-04-28 07:20 38.80146 117.48433 20456 ft 351 kts 325°
2026-04-28 07:21 38.82293 117.47061 21771 ft 345 kts 327°
2026-04-28 07:21 38.84491 117.45739 22656 ft 351 kts 327°
2026-04-28 07:21 38.86695 117.44411 23506 ft 353 kts 324°
2026-04-28 07:22 38.90333 117.40436 24936 ft 338 kts 298°
2026-04-28 07:22 38.91324 117.37777 25693 ft 331 kts 284°
2026-04-28 07:22 38.91636 117.34862 26490 ft 328 kts 269°
2026-04-28 07:22 38.91251 117.31965 27308 ft 330 kts 256°
2026-04-28 07:23 38.90326 117.29244 28115 ft 335 kts 248°
2026-04-28 07:23 38.89159 117.26660 28882 ft 334 kts 247°
2026-04-28 07:23 38.88041 117.24077 29599 ft 333 kts 248°
2026-04-28 07:23 38.86939 117.21442 30271 ft 333 kts 248°
2026-04-28 07:24 38.85858 117.18816 30766 ft 336 kts 248°
2026-04-28 07:24 38.84762 117.16136 31192 ft 340 kts 248°
2026-04-28 07:24 38.83667 117.13462 31712 ft 341 kts 248°
2026-04-28 07:24 38.82555 117.10756 32339 ft 339 kts 249°
2026-04-28 07:25 38.81458 117.08095 32969 ft 337 kts 249°
2026-04-28 07:25 38.80368 117.05454 33573 ft 336 kts 249°
2026-04-28 07:25 38.79279 117.02818 34174 ft 335 kts 249°
2026-04-28 07:25 38.78190 117.00182 34663 ft 334 kts 249°
2026-04-28 07:26 38.77094 116.97528 35116 ft 334 kts 249°
2026-04-28 07:26 38.76021 116.94931 35553 ft 334 kts 249°
2026-04-28 07:26 38.74926 116.92286 35989 ft 334 kts 249°
2026-04-28 07:26 38.73830 116.89678 36418 ft 334 kts 249°
2026-04-28 07:27 38.72731 116.87092 36851 ft 334 kts 249°
2026-04-28 07:27 38.71610 116.84459 37266 ft 333 kts 249°
2026-04-28 07:27 38.70515 116.81886 37684 ft 333 kts 249°
2026-04-28 07:27 38.69411 116.79290 38087 ft 332 kts 249°
2026-04-28 07:28 38.68307 116.76692 38265 ft 331 kts 249°
2026-04-28 07:28 38.67202 116.74096 38293 ft 329 kts 249°
2026-04-28 07:28 38.65357 116.68783 38292 ft 323 kts 257°
2026-04-28 07:29 38.64376 116.63261 38293 ft 320 kts 264°
2026-04-28 07:29 38.64216 116.57564 38295 ft 320 kts 271°
2026-04-28 07:30 38.64394 116.51849 38297 ft 321 kts 271°
2026-04-28 07:30 38.64550 116.46159 38294 ft 321 kts 271°
2026-04-28 07:31 38.64704 116.40430 38299 ft 322 kts 271°
2026-04-28 07:31 38.64855 116.34726 38298 ft 322 kts 271°
2026-04-28 07:32 38.65006 116.28977 38300 ft 322 kts 271°
2026-04-28 07:32 38.64983 116.23228 38299 ft 323 kts 264°
2026-04-28 07:33 38.63976 116.17642 38299 ft 327 kts 255°
2026-04-28 07:33 38.61924 116.12354 38293 ft 336 kts 244°
2026-04-28 07:34 38.59160 116.08117 38309 ft 349 kts 234°
2026-04-28 07:34 38.55138 116.04378 38304 ft 370 kts 221°
2026-04-28 07:35 38.52759 116.02995 38302 ft 383 kts 215°
2026-04-28 07:35 38.50244 116.01816 38295 ft 383 kts 215°
2026-04-28 07:35 38.45250 115.99433 38301 ft 382 kts 215°
2026-04-28 07:36 38.40243 115.97043 38303 ft 382 kts 215°
2026-04-28 07:36 38.36109 115.95078 38301 ft 382 kts 215°
2026-04-28 07:37 38.31108 115.92722 38306 ft 384 kts 213°
2026-04-28 07:37 38.25858 115.90969 38304 ft 399 kts 205°
2026-04-28 07:38 38.20284 115.90042 38306 ft 405 kts 202°
2026-04-28 07:38 38.14713 115.89190 38307 ft 404 kts 202°
2026-04-28 07:39 38.09119 115.88315 38308 ft 403 kts 202°
2026-04-28 07:39 38.03535 115.87444 38310 ft 403 kts 202°
2026-04-28 07:40 37.97975 115.86577 38309 ft 402 kts 202°
2026-04-28 07:40 37.92447 115.85717 38303 ft 401 kts 202°
2026-04-28 07:41 37.86916 115.84845 38303 ft 400 kts 202°
2026-04-28 07:41 37.81400 115.83935 38303 ft 399 kts 202°
2026-04-28 07:42 37.75899 115.83010 38312 ft 395 kts 204°
2026-04-28 07:42 37.70625 115.81420 38300 ft 380 kts 212°
2026-04-28 07:43 37.65838 115.78997 38302 ft 368 kts 218°
2026-04-28 07:43 37.61179 115.76298 38298 ft 369 kts 218°
2026-04-28 07:44 37.56489 115.73615 38299 ft 369 kts 217°
2026-04-28 07:44 37.51801 115.70946 38303 ft 369 kts 217°
2026-04-28 07:45 37.47144 115.68299 38303 ft 369 kts 217°
2026-04-28 07:45 37.42433 115.65625 38296 ft 370 kts 217°
2026-04-28 07:46 37.37797 115.62882 38297 ft 368 kts 218°
2026-04-28 07:46 37.33164 115.60093 38297 ft 369 kts 218°
2026-04-28 07:47 37.28542 115.57332 38303 ft 369 kts 218°
2026-04-28 07:47 37.23899 115.54570 38305 ft 370 kts 218°
2026-04-28 07:48 37.19248 115.51808 38298 ft 370 kts 218°
2026-04-28 07:48 37.14591 115.49046 38311 ft 371 kts 218°
2026-04-28 07:49 37.09887 115.46261 38303 ft 372 kts 218°
2026-04-28 07:49 37.05220 115.43500 38301 ft 372 kts 217°
2026-04-28 07:50 37.00542 115.40738 38299 ft 373 kts 217°
2026-04-28 07:50 36.95836 115.37962 38303 ft 373 kts 217°
2026-04-28 07:51 36.91131 115.35192 38305 ft 374 kts 217°
2026-04-28 07:51 36.86434 115.32429 38300 ft 374 kts 217°
2026-04-28 07:52 36.81728 115.29665 38299 ft 374 kts 217°
2026-04-28 07:52 36.76984 115.26882 38289 ft 374 kts 217°
2026-04-28 07:53 36.72292 115.24133 38288 ft 374 kts 217°
2026-04-28 07:53 36.67569 115.21369 38288 ft 374 kts 217°
2026-04-28 07:54 36.62839 115.18602 38281 ft 374 kts 217°
2026-04-28 07:54 36.58143 115.15858 38281 ft 375 kts 217°
2026-04-28 07:55 36.53395 115.13090 38277 ft 375 kts 217°
2026-04-28 07:55 36.48686 115.10356 38280 ft 375 kts 217°
2026-04-28 07:56 36.43960 115.07617 38279 ft 376 kts 217°
2026-04-28 07:56 36.39151 115.04929 38270 ft 381 kts 213°
2026-04-28 07:57 36.34022 115.02986 38271 ft 394 kts 205°
2026-04-28 07:57 36.28483 115.02002 38267 ft 408 kts 198°
2026-04-28 07:58 36.22793 115.01455 38267 ft 408 kts 198°
2026-04-28 07:58 36.17137 115.00884 38267 ft 408 kts 198°
2026-04-28 07:59 36.11466 115.00304 38268 ft 408 kts 198°
2026-04-28 07:59 36.05785 114.99725 38270 ft 408 kts 198°
2026-04-28 08:00 36.00140 114.99150 38269 ft 408 kts 198°
2026-04-28 08:00 35.94489 114.98575 38270 ft 407 kts 198°
2026-04-28 08:01 35.88845 114.98002 38265 ft 407 kts 198°
2026-04-28 08:01 35.83194 114.97428 38260 ft 407 kts 198°
2026-04-28 08:02 35.77524 114.96854 38254 ft 407 kts 198°
2026-04-28 08:02 35.71892 114.96284 38253 ft 406 kts 198°
2026-04-28 08:03 35.66252 114.95715 38250 ft 406 kts 198°
2026-04-28 08:03 35.60662 114.95151 38248 ft 406 kts 198°
2026-04-28 08:04 35.54992 114.94579 38235 ft 406 kts 198°
2026-04-28 08:04 35.49374 114.94014 38236 ft 406 kts 198°
2026-04-28 08:05 35.43714 114.93445 38245 ft 406 kts 198°
2026-04-28 08:05 35.38090 114.92881 38243 ft 407 kts 198°
2026-04-28 08:06 35.32431 114.92314 38245 ft 407 kts 198°
2026-04-28 08:06 35.26767 114.91747 38251 ft 408 kts 198°
2026-04-28 08:07 35.21138 114.91185 38255 ft 408 kts 198°
2026-04-28 08:07 35.15472 114.90620 38259 ft 408 kts 197°
2026-04-28 08:08 35.09829 114.90058 38262 ft 409 kts 197°
2026-04-28 08:08 35.04132 114.89491 38265 ft 408 kts 197°
2026-04-28 08:09 34.99421 114.89024 38264 ft 408 kts 197°
2026-04-28 08:09 34.93779 114.88464 38267 ft 408 kts 197°
2026-04-28 08:10 34.88130 114.87905 38260 ft 407 kts 197°
2026-04-28 08:10 34.82503 114.87348 38258 ft 407 kts 197°
2026-04-28 08:11 34.76834 114.86788 38257 ft 406 kts 197°
2026-04-28 08:11 34.71193 114.86232 38254 ft 406 kts 197°
2026-04-28 08:12 34.65595 114.85680 38253 ft 405 kts 197°
2026-04-28 08:12 34.59952 114.85125 38253 ft 405 kts 197°
2026-04-28 08:13 34.54337 114.84573 38247 ft 405 kts 197°
2026-04-28 08:13 34.48690 114.84019 38241 ft 405 kts 197°
2026-04-28 08:14 34.43071 114.83468 38243 ft 406 kts 197°
2026-04-28 08:14 34.37454 114.82917 38248 ft 406 kts 197°
2026-04-28 08:15 34.31790 114.82364 38244 ft 406 kts 197°
2026-04-28 08:15 34.26166 114.81815 38254 ft 407 kts 197°
2026-04-28 08:16 34.20521 114.81265 38255 ft 407 kts 197°
2026-04-28 08:16 34.14895 114.80718 38256 ft 407 kts 197°
2026-04-28 08:17 34.09237 114.80174 38262 ft 407 kts 196°
2026-04-28 08:17 34.03585 114.79631 38257 ft 407 kts 196°
2026-04-28 08:18 33.97931 114.79088 38259 ft 407 kts 196°
2026-04-28 08:18 33.92277 114.78546 38260 ft 406 kts 196°
2026-04-28 08:19 33.86663 114.78008 38261 ft 406 kts 196°
2026-04-28 08:19 33.81015 114.77461 38258 ft 405 kts 196°
2026-04-28 08:20 33.75396 114.76894 38261 ft 405 kts 196°
2026-04-28 08:20 33.69775 114.76330 38260 ft 405 kts 196°
2026-04-28 08:21 33.64135 114.75803 38259 ft 405 kts 196°
2026-04-28 08:21 33.58544 114.75295 38244 ft 405 kts 196°
2026-04-28 08:22 33.52928 114.74725 38245 ft 404 kts 196°
2026-04-28 08:22 33.47314 114.74135 38246 ft 404 kts 196°
2026-04-28 08:23 33.41716 114.73587 38246 ft 404 kts 196°
2026-04-28 08:23 33.36121 114.73051 38239 ft 404 kts 196°
2026-04-28 08:24 33.30485 114.72509 38246 ft 404 kts 196°
2026-04-28 08:24 33.24894 114.71970 38243 ft 405 kts 196°
2026-04-28 08:25 33.19260 114.71426 38242 ft 405 kts 196°
2026-04-28 08:26 33.10826 114.70596 38247 ft 405 kts 196°
2026-04-28 08:26 33.05208 114.70044 38243 ft 405 kts 195°
2026-04-28 08:27 32.99604 114.69494 38243 ft 405 kts 195°
2026-04-28 08:27 32.93990 114.68944 38244 ft 405 kts 195°
2026-04-28 08:28 32.88374 114.68395 38245 ft 405 kts 195°
2026-04-28 08:28 32.82745 114.67858 38244 ft 406 kts 195°
2026-04-28 08:29 32.77097 114.67325 38239 ft 406 kts 195°
2026-04-28 08:29 32.71470 114.66793 38246 ft 406 kts 195°
2026-04-28 08:30 32.65844 114.66261 38238 ft 406 kts 195°
2026-04-28 08:30 32.60190 114.65727 38234 ft 406 kts 195°
2026-04-28 08:31 32.54583 114.65198 38227 ft 406 kts 195°
2026-04-28 08:31 32.48950 114.64666 38228 ft 406 kts 195°
2026-04-28 08:32 32.43332 114.64138 38228 ft 406 kts 195°
2026-04-28 08:32 32.37691 114.63607 38219 ft 406 kts 195°
2026-04-28 08:33 32.32068 114.63061 38215 ft 406 kts 195°
2026-04-28 08:33 32.26426 114.62508 38216 ft 406 kts 195°
2026-04-28 08:34 32.20817 114.61962 38212 ft 406 kts 195°
2026-04-28 08:34 32.15166 114.61412 38209 ft 406 kts 195°
2026-04-28 08:35 32.09545 114.60867 38207 ft 406 kts 195°
2026-04-28 08:35 32.03880 114.60318 38199 ft 406 kts 195°
2026-04-28 08:36 31.98256 114.59773 38200 ft 407 kts 194°
2026-04-28 08:36 31.92590 114.59226 38193 ft 407 kts 194°
2026-04-28 08:37 31.86963 114.58683 38192 ft 407 kts 194°
2026-04-28 08:37 31.81298 114.58137 38188 ft 407 kts 194°
2026-04-28 08:38 31.75659 114.57593 38185 ft 407 kts 194°
2026-04-28 08:38 31.70009 114.57050 38179 ft 408 kts 194°
2026-04-28 08:39 31.64378 114.56509 38183 ft 408 kts 194°
2026-04-28 08:39 31.58709 114.55966 38158 ft 408 kts 194°
2026-04-28 08:40 31.53042 114.55424 38162 ft 408 kts 194°
2026-04-28 08:40 31.47400 114.54886 38149 ft 408 kts 194°
2026-04-28 08:41 31.41723 114.54344 38149 ft 409 kts 194°
2026-04-28 08:41 31.36060 114.53804 38135 ft 409 kts 194°
2026-04-28 08:42 31.30376 114.53264 38126 ft 409 kts 193°
2026-04-28 08:42 31.25682 114.52553 38123 ft 401 kts 201°
2026-04-28 08:43 31.19663 114.50073 38114 ft 391 kts 211°
2026-04-28 08:43 31.14742 114.47409 38112 ft 391 kts 212°
2026-04-28 08:44 31.10622 114.45129 38113 ft 392 kts 212°
2026-04-28 08:44 31.05683 114.42415 38111 ft 393 kts 212°
2026-04-28 08:45 31.00713 114.39699 38102 ft 395 kts 212°
2026-04-28 08:45 30.95733 114.36982 38099 ft 396 kts 212°
2026-04-28 08:46 30.90750 114.34266 38098 ft 397 kts 212°
2026-04-28 08:46 30.85731 114.31537 38094 ft 398 kts 212°
2026-04-28 08:47 30.80687 114.28798 38093 ft 399 kts 212°
2026-04-28 08:47 30.75629 114.26047 38095 ft 400 kts 212°
2026-04-28 08:48 30.70584 114.23304 38098 ft 401 kts 212°
2026-04-28 08:48 30.65518 114.20554 38096 ft 402 kts 211°
2026-04-28 08:49 30.60445 114.17803 38100 ft 403 kts 211°
2026-04-28 08:49 30.55342 114.15041 38095 ft 404 kts 211°
2026-04-28 08:50 30.50250 114.12289 38103 ft 404 kts 211°
2026-04-28 08:50 30.45119 114.09519 38101 ft 405 kts 211°
2026-04-28 08:51 30.40007 114.06762 38100 ft 405 kts 211°
2026-04-28 08:51 30.34899 114.04010 38097 ft 406 kts 211°
2026-04-28 08:52 30.29776 114.01254 38095 ft 406 kts 211°
2026-04-28 08:52 30.24651 113.98500 38090 ft 406 kts 211°
2026-04-28 08:53 30.19520 113.95750 38091 ft 406 kts 211°
2026-04-28 08:53 30.14402 113.93012 38083 ft 406 kts 211°
2026-04-28 08:54 30.09255 113.90261 38085 ft 406 kts 211°
2026-04-28 08:54 30.04125 113.87522 38077 ft 406 kts 211°
2026-04-28 08:55 29.98984 113.84780 38076 ft 406 kts 211°
2026-04-28 08:55 29.93855 113.82048 38075 ft 406 kts 211°
2026-04-28 08:56 29.88601 113.79645 38069 ft 412 kts 204°
2026-04-28 08:56 29.82941 113.78239 38064 ft 421 kts 194°
2026-04-28 08:57 29.77766 113.77806 38054 ft 425 kts 191°
2026-04-28 08:57 29.71840 113.77407 38047 ft 426 kts 191°
2026-04-28 08:58 29.67169 113.77081 38050 ft 426 kts 191°
2026-04-28 08:58 29.61252 113.76669 38048 ft 426 kts 191°
2026-04-28 08:59 29.57857 113.76433 38048 ft 427 kts 191°
2026-04-28 08:59 29.51915 113.76020 38052 ft 427 kts 191°
2026-04-28 09:00 29.45930 113.75605 38052 ft 428 kts 190°
2026-04-28 09:00 29.40020 113.75196 38055 ft 429 kts 190°
2026-04-28 09:01 29.34044 113.74782 38054 ft 429 kts 190°
2026-04-28 09:01 29.29300 113.74454 38048 ft 430 kts 190°
2026-04-28 09:02 39.11307 117.34868 5 ft 430 kts 190°
2026-04-28 09:03 29.29301 113.74454 38042 ft 430 kts 190°
2026-04-28 09:03 29.29119 113.74456 38025 ft 270 kts 193°
2026-04-28 09:03 29.27169 113.74392 36840 ft 291 kts 191°
2026-04-28 09:03 29.25086 113.74280 36698 ft 306 kts 191°
2026-04-28 09:04 29.22974 113.74200 37297 ft 298 kts 191°
2026-04-28 09:04 29.20933 113.74131 37896 ft 289 kts 191°
2026-04-28 09:04 29.18896 113.74064 37872 ft 303 kts 191°
2026-04-28 09:04 29.16721 113.73964 37671 ft 318 kts 193°
2026-04-28 09:05 29.14499 113.73764 37941 ft 322 kts 193°
2026-04-28 09:05 29.09907 113.73303 38038 ft 342 kts 193°
2026-04-28 09:05 29.07470 113.73040 38045 ft 354 kts 193°
2026-04-28 09:06 29.04999 113.72761 38044 ft 366 kts 193°
2026-04-28 09:06 28.99776 113.72129 38041 ft 385 kts 193°
2026-04-28 09:07 28.94265 113.71848 38035 ft 414 kts 179°
2026-04-28 09:07 28.88419 113.72814 38036 ft 433 kts 178°
2026-04-28 09:08 28.82342 113.73913 38031 ft 445 kts 178°
2026-04-28 09:08 28.76267 113.75033 38021 ft 443 kts 179°
2026-04-28 09:09 28.70188 113.75262 38022 ft 433 kts 191°
2026-04-28 09:09 28.64183 113.74795 38021 ft 433 kts 190°
2026-04-28 09:10 28.58171 113.74351 38015 ft 434 kts 190°
2026-04-28 09:10 28.52116 113.73907 38014 ft 434 kts 190°
2026-04-28 09:11 28.46105 113.73467 38013 ft 435 kts 190°
2026-04-28 09:11 28.40045 113.73024 38015 ft 435 kts 190°
2026-04-28 09:12 28.34015 113.72583 38005 ft 435 kts 190°
2026-04-28 09:12 28.27980 113.72144 38001 ft 435 kts 190°
2026-04-28 09:13 28.21932 113.71708 38001 ft 435 kts 190°
2026-04-28 09:13 28.15872 113.71265 37993 ft 435 kts 190°
2026-04-28 09:14 28.09845 113.70806 37991 ft 434 kts 191°
2026-04-28 09:14 28.03813 113.70263 37995 ft 434 kts 191°
2026-04-28 09:15 27.97797 113.69714 37990 ft 434 kts 191°
2026-04-28 09:15 27.91771 113.69172 37990 ft 434 kts 191°
2026-04-28 09:16 27.85722 113.68632 37988 ft 434 kts 191°
2026-04-28 09:16 27.79724 113.68097 37988 ft 434 kts 191°
2026-04-28 09:17 27.73689 113.67559 37991 ft 435 kts 191°
2026-04-28 09:17 27.67677 113.67025 37985 ft 434 kts 191°
2026-04-28 09:18 27.61617 113.66654 37981 ft 438 kts 187°
2026-04-28 09:18 27.55520 113.66526 37982 ft 438 kts 187°
2026-04-28 09:19 27.49380 113.66390 37980 ft 438 kts 188°
2026-04-28 09:19 27.43303 113.66255 37975 ft 439 kts 188°
2026-04-28 09:20 27.37177 113.66119 37976 ft 439 kts 188°
2026-04-28 09:20 27.31086 113.65984 37973 ft 439 kts 188°
2026-04-28 09:21 27.24953 113.65850 37970 ft 439 kts 188°
2026-04-28 09:21 27.18816 113.65877 37969 ft 445 kts 181°
2026-04-28 09:22 27.12661 113.67230 37963 ft 454 kts 171°
2026-04-28 09:22 27.06558 113.69059 37956 ft 453 kts 172°
2026-04-28 09:23 27.00475 113.70857 37958 ft 453 kts 172°
2026-04-28 09:23 26.94346 113.72663 37951 ft 453 kts 172°
2026-04-28 09:24 26.88285 113.74448 37944 ft 453 kts 172°
2026-04-28 09:24 26.82167 113.76248 37944 ft 453 kts 171°
2026-04-28 09:25 26.76060 113.78043 37941 ft 453 kts 171°
2026-04-28 09:25 26.69982 113.79875 37951 ft 455 kts 170°
2026-04-28 09:26 26.63893 113.81807 37949 ft 453 kts 170°
2026-04-28 09:26 26.57791 113.83728 37944 ft 455 kts 170°
2026-04-28 09:27 26.48642 113.86585 37947 ft 454 kts 171°
2026-04-28 09:27 26.42535 113.88355 37947 ft 453 kts 171°
2026-04-28 09:28 26.36438 113.90095 37953 ft 452 kts 171°
2026-04-28 09:28 26.30343 113.91850 37951 ft 453 kts 171°
2026-04-28 09:29 26.24219 113.93617 37955 ft 453 kts 171°
2026-04-28 09:29 26.18117 113.95377 37960 ft 454 kts 171°
2026-04-28 09:30 26.13021 113.96845 37962 ft 453 kts 171°
2026-04-28 09:30 26.05891 113.98897 37962 ft 454 kts 171°
2026-04-28 09:31 26.00791 114.00367 37963 ft 455 kts 169°
2026-04-28 09:31 25.97801 114.01665 37964 ft 464 kts 157°
2026-04-28 09:31 25.95071 114.03655 37962 ft 472 kts 144°
2026-04-28 09:32 25.92737 114.06239 37962 ft 480 kts 133°
2026-04-28 09:32 25.90471 114.08956 37964 ft 475 kts 143°
2026-04-28 09:32 25.87844 114.11075 37962 ft 467 kts 155°
2026-04-28 09:32 25.84883 114.12551 37961 ft 459 kts 168°
2026-04-28 09:33 25.81821 114.13283 37963 ft 449 kts 180°
2026-04-28 09:33 25.78703 114.13274 37971 ft 440 kts 193°
2026-04-28 09:33 25.75774 114.12538 37969 ft 431 kts 205°
2026-04-28 09:33 25.73072 114.11152 37973 ft 424 kts 213°
2026-04-28 09:34 25.67811 114.08228 37961 ft 427 kts 208°
2026-04-28 09:34 25.62215 114.05992 37970 ft 430 kts 203°
2026-04-28 09:35 25.56477 114.04035 37971 ft 430 kts 202°
2026-04-28 09:35 25.50762 114.02124 37962 ft 430 kts 202°
2026-04-28 09:36 25.45012 114.00191 37955 ft 429 kts 202°
2026-04-28 09:36 25.39300 113.98267 37962 ft 429 kts 202°
2026-04-28 09:37 25.33580 113.96343 37964 ft 428 kts 202°
2026-04-28 09:37 25.27862 113.94422 37958 ft 429 kts 202°
2026-04-28 09:38 25.22179 113.92514 37958 ft 429 kts 202°
2026-04-28 09:38 25.16477 113.90602 37958 ft 429 kts 202°
2026-04-28 09:39 25.10744 113.88681 37950 ft 429 kts 202°
2026-04-28 09:39 25.05032 113.86769 37951 ft 429 kts 202°
2026-04-28 09:40 24.99318 113.84858 37950 ft 429 kts 202°
2026-04-28 09:40 24.93591 113.82944 37943 ft 428 kts 202°
2026-04-28 09:41 24.87914 113.81045 37955 ft 427 kts 202°
2026-04-28 09:41 24.82225 113.79147 37946 ft 427 kts 202°
2026-04-28 09:42 24.76524 113.77247 37954 ft 428 kts 202°
2026-04-28 09:42 24.70800 113.75341 37952 ft 429 kts 202°
2026-04-28 09:43 24.65077 113.73438 37953 ft 429 kts 202°
2026-04-28 09:43 24.59356 113.71537 37957 ft 430 kts 201°
2026-04-28 09:44 24.53611 113.69630 37962 ft 431 kts 201°
2026-04-28 09:44 24.47855 113.67722 37956 ft 432 kts 201°
2026-04-28 09:45 24.42112 113.65820 37955 ft 433 kts 201°
2026-04-28 09:45 24.36336 113.63909 37956 ft 433 kts 201°
2026-04-28 09:46 24.30572 113.62004 37960 ft 434 kts 201°
2026-04-28 09:46 24.24796 113.60097 37964 ft 434 kts 201°
2026-04-28 09:47 24.18994 113.58183 37962 ft 434 kts 201°
2026-04-28 09:47 24.13239 113.56285 37960 ft 435 kts 201°
2026-04-28 09:48 24.07437 113.54375 37963 ft 435 kts 201°
2026-04-28 09:48 24.01635 113.52467 37956 ft 435 kts 201°
2026-04-28 09:49 23.95795 113.50547 37962 ft 436 kts 201°
2026-04-28 09:49 23.89997 113.48644 37963 ft 437 kts 201°
2026-04-28 09:50 23.84177 113.46736 37963 ft 437 kts 201°
2026-04-28 09:50 23.78348 113.44825 37959 ft 438 kts 201°
2026-04-28 09:51 23.72502 113.42912 37959 ft 438 kts 201°
2026-04-28 09:51 23.66650 113.40997 37951 ft 439 kts 202°
2026-04-28 09:52 23.60810 113.39089 37945 ft 439 kts 202°
2026-04-28 09:52 23.54931 113.37170 37947 ft 439 kts 202°
2026-04-28 09:53 23.49193 113.34988 37938 ft 431 kts 213°
2026-04-28 09:53 23.46716 113.33238 37936 ft 424 kts 224°
2026-04-28 09:53 23.44623 113.30996 37932 ft 417 kts 235°
2026-04-28 09:54 23.43028 113.28391 37935 ft 411 kts 246°
2026-04-28 09:54 23.41976 113.25507 37939 ft 408 kts 257°
2026-04-28 09:54 23.41509 113.22496 37931 ft 406 kts 268°
2026-04-28 09:54 23.41635 113.19441 37936 ft 406 kts 278°
2026-04-28 09:55 23.42363 113.16437 37935 ft 408 kts 290°
2026-04-28 09:55 23.43643 113.13693 37949 ft 412 kts 301°
2026-04-28 09:55 23.45459 113.11248 37942 ft 407 kts 312°
2026-04-28 09:55 23.47654 113.09353 37900 ft 405 kts 324°
2026-04-28 09:56 23.50218 113.08014 37714 ft 415 kts 336°
2026-04-28 09:56 23.53088 113.07296 37453 ft 427 kts 348°
2026-04-28 09:56 23.56072 113.07251 37099 ft 438 kts
2026-04-28 09:56 23.59112 113.07881 36538 ft 450 kts 13°
2026-04-28 09:57 23.62019 113.09252 36033 ft 457 kts 27°
2026-04-28 09:57 23.64548 113.11384 35559 ft 461 kts 43°
2026-04-28 09:57 23.66494 113.14107 35140 ft 463 kts 57°
2026-04-28 09:57 23.68073 113.17202 34715 ft 460 kts 61°
2026-04-28 09:58 23.69518 113.20310 34306 ft 456 kts 62°
2026-04-28 09:58 23.70912 113.23371 33888 ft 452 kts 62°
2026-04-28 09:58 23.72304 113.26446 33411 ft 449 kts 62°
2026-04-28 09:58 23.73761 113.29477 33039 ft 443 kts 60°
2026-04-28 09:59 23.75234 113.32393 32923 ft 433 kts 59°
2026-04-28 09:59 23.76710 113.35215 32873 ft 433 kts 62°
2026-04-28 09:59 23.79005 113.41322 32819 ft 433 kts 63°
2026-04-28 10:00 23.82044 113.46990 32774 ft 432 kts 58°
2026-04-28 10:00 23.83373 113.49932 32741 ft 433 kts 69°
2026-04-28 10:00 23.84145 113.53125 32721 ft 433 kts 83°
2026-04-28 10:01 23.84222 113.56381 32689 ft 432 kts 97°
2026-04-28 10:01 23.83617 113.59569 32574 ft 432 kts 111°
2026-04-28 10:01 23.82849 113.61591 32347 ft 431 kts 120°
2026-04-28 10:01 23.81199 113.64324 31781 ft 428 kts 134°
2026-04-28 10:02 23.79033 113.66478 31194 ft 421 kts 150°
2026-04-28 10:02 23.76448 113.67886 30618 ft 413 kts 166°
2026-04-28 10:02 23.73664 113.68558 30047 ft 406 kts 178°
2026-04-28 10:02 23.70851 113.68611 29390 ft 399 kts 189°
2026-04-28 10:03 23.68165 113.68079 28729 ft 392 kts 200°
2026-04-28 10:03 23.65631 113.66963 28081 ft 386 kts 211°
2026-04-28 10:03 23.63451 113.65368 27472 ft 380 kts 223°
2026-04-28 10:03 23.61613 113.63311 26854 ft 375 kts 234°
2026-04-28 10:04 23.60201 113.60925 26251 ft 372 kts 242°
2026-04-28 10:04 23.59133 113.58395 25665 ft 369 kts 251°
2026-04-28 10:04 23.58434 113.55687 25077 ft 367 kts 258°
2026-04-28 10:04 23.58010 113.52979 24519 ft 365 kts 261°
2026-04-28 10:05 23.57666 113.50234 23963 ft 363 kts 263°
2026-04-28 10:05 23.57404 113.47503 23413 ft 361 kts 264°
2026-04-28 10:05 23.57194 113.44760 22757 ft 359 kts 265°
2026-04-28 10:05 23.56705 113.42119 22123 ft 356 kts 248°
2026-04-28 10:06 23.55482 113.39814 21505 ft 355 kts 232°
2026-04-28 10:06 23.53666 113.37982 20882 ft 356 kts 216°
2026-04-28 10:06 23.51436 113.36838 20292 ft 359 kts 199°
2026-04-28 10:06 23.48956 113.36475 19701 ft 363 kts 181°
2026-04-28 10:07 23.46440 113.36957 19121 ft 369 kts 164°
2026-04-28 10:07 23.44163 113.38244 18560 ft 375 kts 147°
2026-04-28 10:07 23.42313 113.40231 17990 ft 379 kts 129°
2026-04-28 10:07 23.41060 113.42772 17347 ft 383 kts 111°
2026-04-28 10:08 23.40550 113.45618 16720 ft 384 kts 93°
2026-04-28 10:08 23.40838 113.48516 16102 ft 384 kts 75°
2026-04-28 10:08 23.41894 113.51166 15502 ft 382 kts 57°
2026-04-28 10:08 23.43628 113.53343 14916 ft 378 kts 38°
2026-04-28 10:09 23.45839 113.54807 14335 ft 372 kts 19°
2026-04-28 10:09 23.48312 113.55657 13772 ft 368 kts 11°
2026-04-28 10:09 23.50784 113.56224 13149 ft 365 kts
2026-04-28 10:09 23.53296 113.56699 12524 ft 363 kts
2026-04-28 10:10 23.55751 113.57382 11903 ft 364 kts 19°
2026-04-28 10:10 23.57963 113.58703 11309 ft 364 kts 35°
2026-04-28 10:10 23.60077 113.60201 10720 ft 360 kts 21°
2026-04-28 10:10 23.62460 113.60745 10147 ft 350 kts 356°
2026-04-28 10:11 23.64789 113.60198 9556 ft 338 kts 331°
2026-04-28 10:11 23.66620 113.58685 8928 ft 327 kts 305°
2026-04-28 10:11 23.67627 113.56513 8301 ft 316 kts 279°
2026-04-28 10:11 23.67624 113.54190 7696 ft 308 kts 254°
2026-04-28 10:12 23.66758 113.52079 7098 ft 304 kts 233°
2026-04-28 10:12 23.65240 113.50486 6506 ft 302 kts 213°
2026-04-28 10:12 23.63475 113.49282 5898 ft 301 kts 213°
2026-04-28 10:12 23.61807 113.47919 5288 ft 300 kts 220°
2026-04-28 10:13 23.60203 113.46475 4688 ft 297 kts 210°
2026-04-28 10:13 23.58266 113.45729 4140 ft 293 kts 187°
2026-04-28 10:13 23.56286 113.45906 3920 ft 281 kts 164°
2026-04-28 10:13 23.54630 113.46926 3848 ft 268 kts 139°
2026-04-28 10:14 23.53606 113.48547 3838 ft 257 kts 113°
2026-04-28 10:14 23.53377 113.50419 3838 ft 252 kts 86°
2026-04-28 10:14 23.53968 113.52231 3843 ft 262 kts 58°
2026-04-28 10:14 23.55111 113.53785 3858 ft 265 kts 50°
2026-04-28 10:15 23.56385 113.55283 3696 ft 269 kts 49°
2026-04-28 10:15 23.57617 113.56813 3349 ft 270 kts 53°
2026-04-28 10:15 23.58775 113.58430 2980 ft 269 kts 56°
2026-04-28 10:15 23.60173 113.59775 2613 ft 271 kts 27°
2026-04-28 10:16 23.61989 113.60165 2256 ft 270 kts 354°
2026-04-28 10:16 23.63723 113.59496 1902 ft 267 kts 323°
2026-04-28 10:16 23.64990 113.58026 1541 ft 264 kts 296°
2026-04-28 10:16 23.65475 113.56154 1191 ft 261 kts 268°
2026-04-28 10:17 23.65086 113.54260 949 ft 252 kts 242°
2026-04-28 10:17 23.64044 113.52797 925 ft 237 kts 219°
2026-04-28 10:17 23.62795 113.51626 887 ft 239 kts 218°
2026-04-28 10:17 23.61531 113.50504 867 ft 216 kts 217°
2026-04-28 10:18 23.60422 113.49555 840 ft 207 kts 215°
2026-04-28 10:18 23.59156 113.48500 843 ft 236 kts 215°
2026-04-28 10:18 23.57870 113.47395 849 ft 236 kts 217°
2026-04-28 10:18 23.56573 113.46293 841 ft 234 kts 216°
2026-04-28 10:19 23.55705 113.45565 851 ft 236 kts 215°
2026-04-28 10:19 23.54290 113.44447 830 ft 204 kts 211°
2026-04-28 10:19 23.53133 113.43583 836 ft 195 kts 211°
2026-04-28 10:19 23.52078 113.42836 869 ft 175 kts 204°
2026-04-28 10:20 23.50836 113.42141 747 ft 207 kts 205°
2026-04-28 10:20 23.49660 113.41440 539 ft 176 kts 206°
2026-04-28 10:20 23.48540 113.40777 609 ft 193 kts 205°
2026-04-28 10:20 23.47364 113.40132 579 ft 191 kts 202°
2026-04-28 10:21 23.46122 113.39563 453 ft 193 kts 199°
2026-04-28 10:21 23.44885 113.39077 382 ft 190 kts 196°
2026-04-28 10:21 23.43659 113.38508 408 ft 190 kts 207°
2026-04-28 10:21 23.42644 113.37832 372 ft 156 kts 208°
2026-04-28 10:22 23.41804 113.37234 321 ft 131 kts 215°
2026-04-28 10:22 23.41075 113.36564 458 ft 158 kts 218°
2026-04-28 10:22 23.40307 113.35518 536 ft 200 kts 241°
2026-04-28 10:22 23.39895 113.34225 599 ft 156 kts 254°
2026-04-28 10:23 23.39715 113.33565 585 ft 136 kts 246°
2026-04-28 10:23 23.39534 113.33101 501 ft 131 kts 246°
2026-04-28 10:23 23.39199 113.32241 397 ft 116 kts 241°
2026-04-28 10:23 23.38765 113.31502 304 ft 120 kts 233°
2026-04-28 10:24 23.38123 113.30962 103 ft 114 kts 211°
2026-04-28 10:24 23.37587 113.30413 53 ft 97 kts 224°
2026-04-28 10:24 23.37174 113.30195 50 ft 15 kts 146°
2026-04-28 10:24 23.37170 113.30200 48 ft 0 kts 133°